| time (UTC) | temp F | wind direction | speed MPH | gust MPH | rain 1hr in | rain 24hr in | rain mn in | humidity % | barometer mb |
| 20260503213002 | 64 | 273 | 3.0 | 7.0 | 0.00 | 0.00 | 0.00 | 31 | 1016.5 |
| 20260503211614 | 63 | 288 | 0.0 | 11.0 | 0.00 | 0.00 | 0.00 | 32 | 1016.6 |
| 20260503210058 | 63 | 268 | 3.0 | 12.0 | 0.00 | 0.00 | 0.00 | 31 | 1016.6 |
| 20260503204558 | 63 | 323 | 4.0 | 10.0 | 0.00 | 0.00 | 0.00 | 31 | 1016.7 |
| 20260503203056 | 62 | 216 | 4.0 | 15.0 | 0.00 | 0.00 | 0.00 | 32 | 1016.7 |
| 20260503201554 | 62 | 333 | 4.0 | 14.0 | 0.00 | 0.00 | 0.00 | 31 | 1016.8 |
| 20260503200100 | 62 | 302 | 1.0 | 10.0 | 0.00 | 0.00 | 0.00 | 33 | 1017.1 |
| 20260503194556 | 61 | 302 | 4.0 | 13.0 | 0.00 | 0.00 | 0.00 | 32 | 1017.2 |
| 20260503193057 | 61 | 309 | 3.0 | 17.0 | 0.00 | 0.00 | 0.00 | 33 | 1017.4 |
| 20260503191549 | 60 | 309 | 5.0 | 12.0 | 0.00 | 0.00 | 0.00 | 34 | 1017.8 |
| 20260503190048 | 59 | 285 | 5.0 | 14.0 | 0.00 | 0.00 | 0.00 | 34 | 1017.8 |
| 20260503184557 | 60 | 292 | 5.0 | 12.0 | 0.00 | 0.00 | 0.00 | 35 | 1017.9 |
| 20260503183044 | 59 | 351 | 3.0 | 14.0 | 0.00 | 0.00 | 0.00 | 40 | 1018.3 |
| 20260503181555 | 59 | 267 | 5.0 | 10.0 | 0.00 | 0.00 | 0.00 | 37 | 1018.6 |
| 20260503180049 | 58 | 250 | 4.0 | 12.0 | 0.00 | 0.00 | 0.00 | 37 | 1018.7 |
| 20260503174544 | 57 | 332 | 2.0 | 10.0 | 0.00 | 0.00 | 0.00 | 41 | 1018.9 |
| 20260503173046 | 57 | 274 | 4.0 | 10.0 | 0.00 | 0.00 | 0.00 | 37 | 1019.0 |
| 20260503171534 | 57 | 345 | 5.0 | 10.0 | 0.00 | 0.00 | 0.00 | 42 | 1019.3 |
| 20260503081539 | 38 | 21 | 0.0 | 1.0 | 0.00 | 0.00 | 0.00 | 76 | 1016.5 |
| 20260503071524 | 38 | 351 | 1.0 | 4.0 | 0.00 | 0.00 | 0.00 | 75 | 1015.9 |
| 20260503054518 | 38 | 5 | 1.0 | 2.0 | 0.00 | 0.00 | 0.00 | 75 | 1015.5 |
| 20260503053018 | 39 | 5 | 0.0 | 1.0 | 0.00 | 0.00 | 0.00 | 76 | 1015.6 |
| 20260503051527 | 39 | 5 | 1.0 | 2.0 | 0.00 | 0.00 | 0.00 | 73 | 1015.4 |
| 20260503050009 | 39 | 5 | 0.0 | 2.0 | 0.00 | 0.00 | 0.00 | 72 | 1015.4 |
| 20260503044507 | 39 | 5 | 0.0 | 0.0 | 0.00 | 0.00 | 0.00 | 72 | 1015.4 |
| 20260503043005 | 40 | 5 | 0.0 | 1.0 | 0.00 | 0.00 | 0.00 | 72 | 1015.3 |
| 20260503041502 | 41 | 5 | 0.0 | 3.0 | 0.00 | 0.00 | 0.00 | 70 | 1015.2 |
| 20260503040104 | 42 | 10 | 0.0 | 2.0 | 0.00 | 0.00 | 0.00 | 68 | 1015.2 |
| 20260503034602 | 42 | 11 | 1.0 | 2.0 | 0.00 | 0.00 | 0.00 | 67 | 1015.0 |
| 20260503033055 | 43 | 11 | 0.0 | 2.0 | 0.00 | 0.00 | 0.00 | 65 | 1015.0 |
| 20260503031550 | 44 | 11 | 1.0 | 3.0 | 0.00 | 0.00 | 0.00 | 64 | 1014.9 |
| 20260503030112 | 45 | 11 | 0.0 | 0.0 | 0.00 | 0.00 | 0.00 | 60 | 1015.0 |
| 20260503024545 | 46 | 11 | 0.0 | 2.0 | 0.00 | 0.00 | 0.00 | 58 | 1014.8 |
| 20260503023044 | 46 | 355 | 2.0 | 3.0 | 0.00 | 0.00 | 0.00 | 57 | 1014.7 |
| 20260503021542 | 46 | 338 | 0.0 | 4.0 | 0.00 | 0.00 | 0.00 | 57 | 1014.6 |
| 20260503020037 | 48 | 11 | 2.0 | 3.0 | 0.00 | 0.00 | 0.00 | 56 | 1014.6 |
| 20260503014547 | 50 | 336 | 0.0 | 1.0 | 0.00 | 0.00 | 0.00 | 51 | 1014.3 |
| 20260503013036 | 51 | 336 | 0.0 | 2.0 | 0.00 | 0.00 | 0.00 | 48 | 1014.3 |
| 20260503011544 | 52 | 325 | 1.0 | 5.0 | 0.00 | 0.00 | 0.00 | 45 | 1014.2 |
| 20260503010034 | 52 | 336 | 3.0 | 6.0 | 0.00 | 0.00 | 0.00 | 44 | 1014.0 |
| 20260503004536 | 53 | 306 | 5.0 | 12.0 | 0.00 | 0.00 | 0.00 | 43 | 1014.0 |
| 20260503003043 | 54 | 336 | 6.0 | 12.0 | 0.00 | 0.00 | 0.00 | 42 | 1013.5 |
| 20260503001534 | 55 | 291 | 4.0 | 10.0 | 0.00 | 0.00 | 0.00 | 44 | 1013.3 |
| 20260503000034 | 56 | 311 | 3.0 | 11.0 | 0.00 | 0.00 | 0.00 | 44 | 1013.0 |
| 20260502234532 | 57 | 347 | 4.0 | 9.0 | 0.00 | 0.00 | 0.00 | 43 | 1012.6 |
| 20260502233030 | 57 | 338 | 4.0 | 13.0 | 0.00 | 0.00 | 0.00 | 41 | 1012.5 |
| 20260502231530 | 58 | 294 | 5.0 | 17.0 | 0.00 | 0.00 | 0.00 | 40 | 1012.2 |
| 20260502230030 | 59 | 340 | 9.0 | 21.0 | 0.00 | 0.00 | 0.00 | 40 | 1011.8 |
| 20260502224529 | 58 | 339 | 4.0 | 12.0 | 0.00 | 0.00 | 0.00 | 46 | 1011.8 |
| 20260502223028 | 59 | 236 | 3.0 | 5.0 | 0.00 | 0.00 | 0.00 | 44 | 1011.5 |
| 20260502221529 | 60 | 96 | 1.0 | 3.0 | 0.00 | 0.00 | 0.00 | 46 | 1011.4 |
| 20260502220028 | 60 | 83 | 1.0 | 4.0 | 0.00 | 0.00 | 0.00 | 43 | 1011.2 |
| 20260502214527 | 60 | 111 | 2.0 | 6.0 | 0.00 | 0.00 | 0.00 | 43 | 1011.1 |